CAPE
0 5 3 2 15 23 26 30 32 14 10 18 6 17 7 0 0 2 0 0 0 0 0 0 0 0 0 0 0 0 0 0 0 0 0 0 0 0 0 0 0 0 0 0 1 0 0
4 3 2 15 9 4 3 24 45 27 22 5 14 11 10 16 2 0 0 0 0 0 0 0 0 0 0 0 0 0 0 0 0 0 0 0 0 0 0 0 0 0 1 0 0 0 0
15 13 23 29 36 20 8 16 8 40 26 20 9 10 21 15 17 2 0 0 0 0 0 0 0 0 0 0 0 0 0 0 0 0 0 0 0 0 0 0 0 0 0 0 4 0 0
26 33 30 35 29 31 29 26 27 11 41 28 30 11 14 18 11 7 0 0 0 0 1 0 0 0 0 0 0 0 0 0 0 0 0 0 0 0 0 0 0 0 0 0 0 10 7
14 23 34 56 42 34 33 35 31 34 18 37 28 23 9 12 15 10 0 0 0 0 1 0 0 0 0 0 0 0 0 0 0 0 0 0 0 0 0 0 0 0 0 0 7 14 69
17 31 39 37 30 52 42 37 32 31 33 14 33 25 19 15 9 10 0 0 0 1 0 0 0 0 0 0 0 0 0 0 0 0 0 0 0 0 0 0 0 0 0 1 0 18 29
26 26 33 48 48 46 19 55 42 23 28 44 43 45 26 14 16 12 0 0 0 2 0 0 0 0 0 0 0 0 0 0 0 0 0 0 0 0 0 0 1 1 0 0 20 33 29
55 57 44 49 66 55 23 31 46 35 18 22 46 25 44 22 17 10 3 0 0 0 0 0 0 0 0 0 0 0 0 0 0 0 0 0 0 0 0 7 0 0 0 0 3 17 0
60 66 53 40 53 62 47 59 41 25 41 21 27 20 27 26 25 1 0 0 0 0 1 0 0 0 0 0 0 0 0 0 0 0 0 0 0 0 0 0 0 0 0 0 8 3 0
60 55 54 54 56 61 61 63 74 58 33 43 16 30 14 6 0 0 0 0 0 0 0 0 0 0 0 0 0 0 0 0 0 0 0 0 0 0 0 0 0 0 0 0 1 11 6
48 47 50 52 59 0 0 80 89 81 67 60 33 39 29 7 7 3 29 1 15 58 0 0 0 0 0 0 0 0 0 0 0 0 0 0 0 0 0 0 0 0 7 1 0 0 7
56 48 45 53 0 0 0 34 68 70 10 35 60 48 43 38 29 0 48 60 152 25 0 0 0 0 0 0 0 0 0 0 0 0 0 0 0 0 0 0 0 3 1 0 0 5 22
58 24 38 0 0 0 0 0 0 27 73 10 72 59 55 16 32 20 32 78 47 0 0 0 0 0 0 0 0 0 0 0 0 0 0 0 0 0 1 1 1 0 9 12 16 13 57
0 0 53 51 0 0 31 0 0 0 5 74 0 3 43 15 17 10 81 141 0 0 0 0 0 1 0 0 0 0 0 0 0 0 0 0 0 0 0 0 0 0 0 28 0 56 93
0 0 0 30 41 45 0 0 0 0 0 53 61 0 0 83 18 80 35 0 0 0 0 0 0 5 5 0 0 0 0 0 0 0 0 0 0 0 0 0 0 11 0 0 70 57 191
0 0 0 0 0 0 0 0 0 0 75 55 0 0 0 75 131 159 50 0 0 0 0 0 0 3 29 6 0 0 0 0 0 0 0 0 0 3 1 2 0 0 2 38 33 30 61
0 0 0 0 0 0 0 0 0 0 64 45 0 0 0 70 182 81 0 0 0 0 0 0 0 0 0 30 0 0 0 0 0 0 0 1 11 19 2 4 0 0 0 44 66 37 103
0 0 0 0 0 0 0 58 52 54 55 51 0 0 51 68 0 0 0 0 0 0 0 0 0 0 1 14 30 13 0 4 0 0 0 1 33 0 2 2 0 1 7 33 98 47 145
0 0 0 0 0 46 17 61 4 24 59 7 0 0 61 103 0 0 0 0 0 0 0 0 0 0 0 11 27 83 77 7 9 1 2 0 12 0 0 22 18 0 12 19 59 100 124
0 0 0 0 0 0 0 60 0 44 65 0 0 0 0 32 0 0 0 0 0 0 0 0 2 36 24 0 31 35 13 43 43 0 1 5 29 0 0 0 22 24 27 38 71 91 64
0 0 0 0 0 0 0 0 0 0 54 6 0 0 0 0 0 0 0 0 0 0 0 0 0 20 38 62 28 39 40 58 6 2 4 55 0 81 33 13 49 39 5 1 34 37 74
0 0 0 0 0 95 78 49 1 91 69 9 0 0 58 0 0 0 0 0 0 0 0 0 0 0 26 17 1 34 41 56 15 16 5 52 28 95 4 3 5 4 4 0 0 3 13
0 0 0 13 60 62 75 64 55 44 33 0 0 0 62 0 0 0 0 0 0 3 6 0 0 47 125 0 144 160 6 1 53 38 54 69 126 100 0 47 25 0 0 5 6 16 19
56 60 61 58 60 68 66 71 60 75 84 1 0 0 0 0 108 0 0 0 0 6 9 3 31 63 28 172 318 130 35 0 1 28 49 48 113 117 0 61 0 0 1 0 1 0 9
0 0 55 60 57 64 59 63 74 72 92 36 0 0 28 112 118 65 8 28 27 43 68 69 62 3 119 532 214 79 6 0 0 22 0 4 38 112 0 0 0 0 0 0 13 0 3
61 60 64 74 77 76 72 80 89 89 104 76 0 46 159 117 253 33 89 52 74 68 83 26 7 141 216 94 220 4 0 0 0 0 12 25 28 23 234 0 0 0 0 9 36 7 15
41 46 57 79 92 111 160 131 104 90 104 87 37 55 225 94 237 291 242 251 147 61 80 98 61 273 491 243 158 124 2 0 0 0 0 0 8 17 88 35 0 0 4 16 30 6 150
17 40 43 64 87 136 160 188 175 112 93 91 30 25 96 61 369 194 79 93 174 207 99 124 204 331 114 216 197 126 172 28 0 0 64 0 0 0 102 74 0 16 35 55 50 162 306
41 31 32 51 83 123 127 175 203 121 55 9 39 58 371 361 131 139 171 233 195 159 238 254 187 166 93 9 174 197 454 294 30 0 116 10 0 0 109 76 127 33 59 135 184 303 342
CIN
0 -1 0 -3 0 0 0 -1 -2 -2 -1 -2 0 -1 -2 0 0 0 0 0 0 0 0 0 0 0 0 0 0 0 0 0 0 0 0 0 0 0 0 0 0 0 0 0 -1 0 -1
0 0 0 0 0 -3 0 0 0 -4 -4 -1 -1 0 0 -2 -1 0 0 0 0 0 0 0 0 0 0 0 0 0 0 0 0 0 0 0 0 0 0 0 0 0 0 0 0 0 -2
0 0 0 0 0 0 -6 0 -3 0 -6 -3 -1 -1 -2 0 -2 -2 0 0 0 0 0 0 0 0 0 0 0 0 0 0 0 0 0 0 0 0 0 0 0 0 0 0 -1 0 0
0 0 0 0 0 0 -2 -2 0 -4 0 -5 -4 -1 -1 -3 -1 -7 0 0 0 0 0 0 0 0 0 0 0 0 0 0 0 0 0 0 0 0 0 0 0 0 0 0 0 -33 -17
0 0 0 0 0 0 -1 -1 -2 0 0 -1 -4 -8 -2 -2 -4 -9 0 0 0 0 0 0 0 0 0 0 0 0 0 0 0 0 0 0 0 0 0 0 0 0 0 0 -3 -63 -27
0 0 0 0 -1 0 0 0 -1 -1 -1 -1 -3 -4 -10 -6 -2 -11 0 0 0 0 0 0 0 0 0 0 0 0 0 0 0 0 0 0 0 0 0 0 0 0 0 -3 0 -13 -3
0 0 0 0 0 0 0 0 0 -1 -2 0 -1 -3 -3 -8 -13 -15 0 0 0 0 0 0 0 0 0 0 0 0 0 0 0 0 0 0 0 0 0 0 -4 0 0 0 -10 -23 -15
0 0 0 0 0 0 0 0 0 -1 -2 -3 -1 -3 -3 -8 -13 -17 -2 0 0 0 0 0 0 0 0 0 0 0 0 0 0 0 0 0 0 0 0 -2 0 0 0 0 -9 -3 0
0 0 0 0 0 0 0 0 0 -1 -1 -3 -3 -2 -5 -5 -15 -7 0 0 0 0 0 0 0 0 0 0 0 0 0 0 0 0 0 0 0 0 0 0 0 0 0 0 -5 -14 0
0 0 0 0 0 0 0 0 0 0 0 -1 -9 -3 -8 -2 0 0 0 0 0 0 0 0 0 0 0 0 0 0 0 0 0 0 0 0 0 0 0 0 0 0 0 0 -3 0 -6
0 0 0 0 0 0 0 0 0 0 0 -1 -2 -3 -4 -1 -7 0 -14 -2 -1 -1 0 0 0 0 0 0 0 0 0 0 0 0 0 0 0 0 0 0 0 0 -6 -4 0 0 0
0 0 0 0 0 0 0 0 0 0 0 -1 -1 -3 -4 -1 0 0 -6 -9 -4 0 0 0 0 0 0 0 0 0 0 0 0 0 0 0 0 0 0 0 0 0 0 0 0 -1 -2
0 0 0 0 0 0 0 0 0 0 0 0 -1 -2 -2 0 0 -1 -1 -18 0 0 0 0 0 0 0 0 0 0 0 0 0 0 0 0 0 -1 0 -1 0 0 -1 0 0 -11 -9
0 0 0 0 0 0 0 0 0 0 0 -1 0 0 -2 0 -10 -5 -1 0 0 0 0 0 0 -2 0 0 0 0 0 0 0 0 0 0 0 0 0 0 0 0 0 -1 0 -3 -7
0 0 0 0 0 0 0 0 0 0 0 -1 -1 0 0 0 -13 -2 -1 0 0 0 0 0 0 0 0 0 0 0 0 0 0 0 0 0 0 0 0 0 0 -1 0 0 0 -33 -5
0 0 0 0 0 0 0 0 0 0 -1 -3 0 0 0 -1 0 0 0 0 0 0 0 0 0 0 0 0 0 0 0 0 0 0 0 0 0 -3 -2 -1 0 0 0 0 -1 -2 -3
0 0 0 0 0 0 0 0 0 0 0 -10 0 0 0 -2 -1 0 0 0 0 0 0 0 0 0 0 -1 -1 0 0 0 0 0 0 -1 -4 -1 -3 -1 0 0 0 0 0 -1 -3
0 0 0 0 0 0 0 0 -1 0 -1 -1 0 0 -1 -7 0 0 0 0 0 0 0 0 0 0 -11 -3 -5 -2 0 0 0 0 0 0 0 0 -1 -1 0 -1 -1 -2 -5 -2 -2
0 0 0 0 0 0 0 0 -4 -4 -2 0 0 0 -5 0 0 0 0 0 0 0 0 0 0 0 0 0 -4 -1 -9 -4 -8 -1 0 0 0 0 0 -1 -1 0 0 0 -3 -3 -3
0 0 0 0 0 0 0 -2 0 -1 -1 0 0 0 0 -1 0 0 0 0 0 0 0 0 -2 -22 -60 0 -24 -6 -5 -1 -15 0 -5 -11 0 0 0 -5 -13 -4 -1 -7 -6 -9 -19
0 0 0 0 0 0 0 0 0 0 0 0 0 0 0 0 0 0 0 0 0 0 0 0 0 -2 -32 -20 -14 -22 -14 -20 -22 -3 -16 -19 0 -2 -2 -6 -1 -6 -8 -1 -1 0 -27
0 0 0 0 0 0 0 0 0 0 0 0 0 0 0 0 0 0 0 0 0 0 0 0 0 0 0 -26 -13 -4 -6 -4 -11 -14 -31 -28 -1 -2 0 -2 -21 -7 -6 0 0 -7 -3
0 0 0 0 0 0 0 0 -1 -1 0 0 0 0 0 0 0 0 0 0 0 0 0 0 0 0 0 0 -5 -9 -19 -11 -16 -9 -12 -25 -1 -2 0 -1 -5 0 -1 -1 -3 -2 -2
0 0 0 0 0 0 0 0 0 -1 0 0 0 0 -2 0 0 0 0 0 0 0 0 0 0 -1 -5 -20 -96 -27 -25 -1 -1 -11 -43 -17 -7 -10 0 -10 0 0 -4 0 -9 0 -3
0 0 0 0 0 0 0 0 0 0 0 -1 -10 0 0 -2 -2 -8 -4 0 0 0 0 0 0 -1 -5 -14 -22 -21 -1 0 0 -1 -22 -29 -10 0 0 0 0 0 0 0 -4 0 -5
0 0 0 0 0 0 0 0 0 0 0 -1 -2 -7 -1 0 0 -23 -2 0 -10 0 0 -5 -28 -4 -6 -3 -1 -1 0 0 0 0 -3 -8 -8 -2 -9 0 0 0 -1 -12 -6 -17 -11
0 -1 -6 -14 -4 0 0 0 0 0 0 -1 -1 -3 -1 0 -1 -4 0 0 -1 0 0 0 -16 -8 -11 -14 -10 -1 0 0 0 0 0 0 -1 0 0 -4 0 0 -54 -18 -6 -20 -19
-3 -1 -21 -10 -3 0 0 0 0 0 -2 -1 -2 -3 -2 -5 -1 -9 -35 -10 -1 0 0 0 -9 -2 -42 -9 -2 0 -4 -7 0 0 -8 0 0 0 -1 -1 0 -8 -13 -7 -68 -110 -12
-1 -1 -25 -10 -4 0 -1 -2 -1 -1 -1 0 -1 -10 -4 -2 0 -6 -9 -8 -6 -7 -17 -3 0 -2 -4 0 -1 -1 -15 -39 -11 0 -2 -2 0 0 -1 -1 -31 -24 -21 -42 -70 -40 -31
Wind_Speed
nan nan nan nan nan nan nan nan nan nan nan nan nan nan nan nan nan nan nan nan nan nan nan nan nan nan nan nan nan nan nan nan nan nan nan nan nan nan nan nan nan nan nan nan nan nan nan
nan nan nan nan nan nan nan nan nan nan nan nan nan nan nan nan nan nan nan nan nan nan nan nan nan nan nan nan nan nan nan nan nan nan nan nan nan nan nan nan nan nan nan nan nan nan nan
nan nan nan nan nan nan nan nan nan nan nan nan nan nan nan nan nan nan nan nan nan nan nan nan nan nan nan nan nan nan nan nan nan nan nan nan nan nan nan nan nan nan nan nan nan nan nan
nan nan nan nan nan nan nan nan nan nan nan nan nan nan nan nan nan nan nan nan nan nan nan nan nan nan nan nan nan nan nan nan nan nan nan nan nan nan nan nan nan nan nan nan nan nan nan
nan nan nan nan nan nan nan nan nan nan nan nan nan nan nan nan nan nan nan nan nan nan nan nan nan nan nan nan nan nan nan nan nan nan nan nan nan nan nan nan nan nan nan nan nan nan nan
nan nan nan nan nan nan nan nan nan nan nan nan nan nan nan nan nan nan nan nan nan nan nan nan nan nan nan nan nan nan nan nan nan nan nan nan nan nan nan nan nan nan nan nan nan nan nan
nan nan nan nan nan nan nan nan nan nan nan nan nan nan nan nan nan nan nan nan nan nan nan nan nan nan nan nan nan nan nan nan nan nan nan nan nan nan nan nan nan nan nan nan nan nan nan
nan nan nan nan nan nan nan nan nan nan nan nan nan nan nan nan nan nan nan nan nan nan nan nan nan nan nan nan nan nan nan nan nan nan nan nan nan nan nan nan nan nan nan nan nan nan nan
nan nan nan nan nan nan nan nan nan nan nan nan nan nan nan nan nan nan nan nan nan nan nan nan nan nan nan nan nan nan nan nan nan nan nan nan nan nan nan nan nan nan nan nan nan nan nan
nan nan nan nan nan nan nan nan nan nan nan nan nan nan nan nan nan nan nan nan nan nan nan nan nan nan nan nan nan nan nan nan nan nan nan nan nan nan nan nan nan nan nan nan nan nan nan
nan nan nan nan nan nan nan nan nan nan nan nan nan nan nan nan nan nan nan nan nan nan nan nan nan nan nan nan nan nan nan nan nan nan nan nan nan nan nan nan nan nan nan nan nan nan nan
nan nan nan nan nan nan nan nan nan nan nan nan nan nan nan nan nan nan nan nan 55 nan nan nan nan nan nan nan nan nan nan nan nan nan nan nan nan nan nan nan nan nan nan nan nan nan nan
nan nan nan nan nan nan nan nan nan nan nan nan nan nan nan nan nan nan nan nan nan nan nan nan nan nan nan nan nan nan nan nan nan nan nan nan nan nan nan nan nan nan nan nan nan nan nan
nan nan nan nan nan nan nan nan nan nan nan nan nan nan nan nan nan nan nan 61 nan nan nan nan nan nan nan nan nan nan nan nan nan nan nan nan nan nan nan nan nan nan nan nan nan nan nan
nan nan nan nan nan nan nan nan nan nan nan nan nan nan nan nan nan nan nan nan nan nan nan nan nan nan nan nan nan nan nan nan nan nan nan nan nan nan nan nan nan nan nan nan nan nan 18
nan nan nan nan nan nan nan nan nan nan nan nan nan nan nan nan 36 44 nan nan nan nan nan nan nan nan nan nan nan nan nan nan nan nan nan nan nan nan nan nan nan nan nan nan nan nan nan
nan nan nan nan nan nan nan nan nan nan nan nan nan nan nan nan 46 nan nan nan nan nan nan nan nan nan nan nan nan nan nan nan nan nan nan nan nan nan nan nan nan nan nan nan nan nan 17
nan nan nan nan nan nan nan nan nan nan nan nan nan nan nan nan nan nan nan nan nan nan nan nan nan nan nan nan nan nan nan nan nan nan nan nan nan nan nan nan nan nan nan nan nan nan 22
nan nan nan nan nan nan nan nan nan nan nan nan nan nan nan 57 nan nan nan nan nan nan nan nan nan nan nan nan nan nan nan nan nan nan nan nan nan nan nan nan nan nan nan nan nan 18 18
nan nan nan nan nan nan nan nan nan nan nan nan nan nan nan nan nan nan nan nan nan nan nan nan nan nan nan nan nan nan nan nan nan nan nan nan nan nan nan nan nan nan nan nan nan nan nan
nan nan nan nan nan nan nan nan nan nan nan nan nan nan nan nan nan nan nan nan nan nan nan nan nan nan nan nan nan nan nan nan nan nan nan nan nan nan nan nan nan nan nan nan nan nan nan
nan nan nan nan nan nan nan nan nan nan nan nan nan nan nan nan nan nan nan nan nan nan nan nan nan nan nan nan nan nan nan nan nan nan nan nan nan nan nan nan nan nan nan nan nan nan nan
nan nan nan nan nan nan nan nan nan nan nan nan nan nan nan nan nan nan nan nan nan nan nan nan nan nan 46 nan 50 53 nan nan nan nan nan nan 36 33 nan nan nan nan nan nan nan nan nan
nan nan nan nan nan nan nan nan nan nan nan nan nan nan nan nan 51 nan nan nan nan nan nan nan nan nan nan 55 59 48 nan nan nan nan nan nan 41 40 nan nan nan nan nan nan nan nan nan
nan nan nan nan nan nan nan nan nan nan nan nan nan nan nan 60 41 nan nan nan nan nan nan nan nan nan 35 44 59 nan nan nan nan nan nan nan nan 32 nan nan nan nan nan nan nan nan nan
nan nan nan nan nan nan nan nan nan nan 19 nan nan nan 54 47 44 nan nan nan nan nan nan nan nan 28 35 nan 48 nan nan nan nan nan nan nan nan nan 47 nan nan nan nan nan nan nan nan
nan nan nan nan nan 24 30 31 31 nan 25 nan nan nan 43 nan 45 37 38 36 40 nan nan nan nan 29 36 52 53 61 nan nan nan nan nan nan nan nan nan nan nan nan nan nan nan nan 9
nan nan nan nan nan 18 20 21 22 26 nan nan nan nan nan nan 44 51 nan nan 37 31 nan 33 41 43 47 39 44 59 65 nan nan nan nan nan nan nan 37 nan nan nan nan nan nan 8 15
nan nan nan nan nan 15 12 15 14 17 nan nan nan nan 47 51 45 44 38 28 32 34 41 35 26 35 nan nan 44 43 58 54 nan nan 29 nan nan nan 41 nan 51 nan nan 32 24 27 23
Wind_Direction
nan nan nan nan nan nan nan nan nan nan nan nan nan nan nan nan nan nan nan nan nan nan nan nan nan nan nan nan nan nan nan nan nan nan nan nan nan nan nan nan nan nan nan nan nan nan nan
nan nan nan nan nan nan nan nan nan nan nan nan nan nan nan nan nan nan nan nan nan nan nan nan nan nan nan nan nan nan nan nan nan nan nan nan nan nan nan nan nan nan nan nan nan nan nan
nan nan nan nan nan nan nan nan nan nan nan nan nan nan nan nan nan nan nan nan nan nan nan nan nan nan nan nan nan nan nan nan nan nan nan nan nan nan nan nan nan nan nan nan nan nan nan
nan nan nan nan nan nan nan nan nan nan nan nan nan nan nan nan nan nan nan nan nan nan nan nan nan nan nan nan nan nan nan nan nan nan nan nan nan nan nan nan nan nan nan nan nan nan nan
nan nan nan nan nan nan nan nan nan nan nan nan nan nan nan nan nan nan nan nan nan nan nan nan nan nan nan nan nan nan nan nan nan nan nan nan nan nan nan nan nan nan nan nan nan nan nan
nan nan nan nan nan nan nan nan nan nan nan nan nan nan nan nan nan nan nan nan nan nan nan nan nan nan nan nan nan nan nan nan nan nan nan nan nan nan nan nan nan nan nan nan nan nan nan
nan nan nan nan nan nan nan nan nan nan nan nan nan nan nan nan nan nan nan nan nan nan nan nan nan nan nan nan nan nan nan nan nan nan nan nan nan nan nan nan nan nan nan nan nan nan nan
nan nan nan nan nan nan nan nan nan nan nan nan nan nan nan nan nan nan nan nan nan nan nan nan nan nan nan nan nan nan nan nan nan nan nan nan nan nan nan nan nan nan nan nan nan nan nan
nan nan nan nan nan nan nan nan nan nan nan nan nan nan nan nan nan nan nan nan nan nan nan nan nan nan nan nan nan nan nan nan nan nan nan nan nan nan nan nan nan nan nan nan nan nan nan
nan nan nan nan nan nan nan nan nan nan nan nan nan nan nan nan nan nan nan nan nan nan nan nan nan nan nan nan nan nan nan nan nan nan nan nan nan nan nan nan nan nan nan nan nan nan nan
nan nan nan nan nan nan nan nan nan nan nan nan nan nan nan nan nan nan nan nan nan nan nan nan nan nan nan nan nan nan nan nan nan nan nan nan nan nan nan nan nan nan nan nan nan nan nan
nan nan nan nan nan nan nan nan nan nan nan nan nan nan nan nan nan nan nan nan 249 nan nan nan nan nan nan nan nan nan nan nan nan nan nan nan nan nan nan nan nan nan nan nan nan nan nan
nan nan nan nan nan nan nan nan nan nan nan nan nan nan nan nan nan nan nan nan nan nan nan nan nan nan nan nan nan nan nan nan nan nan nan nan nan nan nan nan nan nan nan nan nan nan nan
nan nan nan nan nan nan nan nan nan nan nan nan nan nan nan nan nan nan nan 238 nan nan nan nan nan nan nan nan nan nan nan nan nan nan nan nan nan nan nan nan nan nan nan nan nan nan nan
nan nan nan nan nan nan nan nan nan nan nan nan nan nan nan nan nan nan nan nan nan nan nan nan nan nan nan nan nan nan nan nan nan nan nan nan nan nan nan nan nan nan nan nan nan nan 230
nan nan nan nan nan nan nan nan nan nan nan nan nan nan nan nan 249 241 nan nan nan nan nan nan nan nan nan nan nan nan nan nan nan nan nan nan nan nan nan nan nan nan nan nan nan nan nan
nan nan nan nan nan nan nan nan nan nan nan nan nan nan nan nan 251 nan nan nan nan nan nan nan nan nan nan nan nan nan nan nan nan nan nan nan nan nan nan nan nan nan nan nan nan nan 244
nan nan nan nan nan nan nan nan nan nan nan nan nan nan nan nan nan nan nan nan nan nan nan nan nan nan nan nan nan nan nan nan nan nan nan nan nan nan nan nan nan nan nan nan nan nan 243
nan nan nan nan nan nan nan nan nan nan nan nan nan nan nan 259 nan nan nan nan nan nan nan nan nan nan nan nan nan nan nan nan nan nan nan nan nan nan nan nan nan nan nan nan nan 241 226
nan nan nan nan nan nan nan nan nan nan nan nan nan nan nan nan nan nan nan nan nan nan nan nan nan nan nan nan nan nan nan nan nan nan nan nan nan nan nan nan nan nan nan nan nan nan nan
nan nan nan nan nan nan nan nan nan nan nan nan nan nan nan nan nan nan nan nan nan nan nan nan nan nan nan nan nan nan nan nan nan nan nan nan nan nan nan nan nan nan nan nan nan nan nan
nan nan nan nan nan nan nan nan nan nan nan nan nan nan nan nan nan nan nan nan nan nan nan nan nan nan nan nan nan nan nan nan nan nan nan nan nan nan nan nan nan nan nan nan nan nan nan
nan nan nan nan nan nan nan nan nan nan nan nan nan nan nan nan nan nan nan nan nan nan nan nan nan nan 207 nan 228 232 nan nan nan nan nan nan 219 222 nan nan nan nan nan nan nan nan nan
nan nan nan nan nan nan nan nan nan nan nan nan nan nan nan nan 247 nan nan nan nan nan nan nan nan nan nan 215 230 219 nan nan nan nan nan nan 213 218 nan nan nan nan nan nan nan nan nan
nan nan nan nan nan nan nan nan nan nan nan nan nan nan nan 230 244 nan nan nan nan nan nan nan nan nan 219 232 227 nan nan nan nan nan nan nan nan 214 nan nan nan nan nan nan nan nan nan
nan nan nan nan nan nan nan nan nan nan 227 nan nan nan 229 228 229 nan nan nan nan nan nan nan nan 206 207 nan 227 nan nan nan nan nan nan nan nan nan 228 nan nan nan nan nan nan nan nan
nan nan nan nan nan 284 276 258 244 nan 231 nan nan nan 222 nan 218 210 226 225 225 nan nan nan nan 213 206 201 210 210 nan nan nan nan nan nan nan nan nan nan nan nan nan nan nan nan 224
nan nan nan nan nan 302 279 256 238 236 nan nan nan nan nan nan 213 221 nan nan 224 226 nan 229 222 205 215 217 231 224 231 nan nan nan nan nan nan nan 224 nan nan nan nan nan nan 219 243
nan nan nan nan nan 271 250 198 202 226 nan nan nan nan 214 209 206 208 217 205 196 193 199 221 213 241 nan nan 224 227 225 237 nan nan 236 nan nan nan 229 nan 227 nan nan 212 203 204 219